World > North America > United States > Illinois   City of Peoria, IL

Peoria, Illinois Regional Weather

Lat: 40.74N, Lon: 89.61W
Wx Zone: ILZ029Web Search
Peoria Weather Warning NWS WEATHER ALERT FOR THE PEORIA, IL AREA - Issued: 325 PM CST Sun Jan 17 2021 Peoria Weather Warning  

Helpful Tip: Type the letters wx in the search engine next time you need to find us.

Feedback
Peoria Weather Map
UTC Time: 1/17/2021, 21:58
Your Time:

Peoria, IL Regional Weather

Expires:202101172200;;072687
ASUS43 KLOT 172108
RWRIL 

ILLINOIS REGIONAL WEATHER ROUNDUP
NATIONAL WEATHER SERVICE CHICAGO/ROMEOVILLE IL
300 PM CST SUN JAN 17 2021

NOTE: "FAIR" INDICATES FEW OR NO CLOUDS BELOW 12,000 FEET WITH NO
SIGNIFICANT WEATHER AND/OR OBSTRUCTIONS TO VISIBILITY.

* THESE STATIONS ARE NOT UNDER NWS QUALITY CONTROL. THEY ALSO MAY NOT
  REPORT WEATHER SUCH AS PRECIPITATION OR FOG.


ILZ028>032-037-038-041>044-048-051>054-059>061-172200-
CENTRAL ILLINOIS
  
CITY           SKY/WX    TMP DP  RH WIND       PRES   REMARKS
PONTIAC        FLURRIES  28  27  93 W14       29.74R WCI  17          
BLOOMINGTON    LGT SNOW  28  25  88 W13       29.74R FOG     WCI  17  
DECATUR        LGT SNOW  30  27  86 W10       29.76R FOG     WCI  21  
PEORIA         CLOUDY    29  23  78 NW10      29.76R WCI  20          
LACON*         CLOUDY    29  25  88 NW8       29.74S WCI  21          
LINCOLN*       FLURRIES  31  24  76 W6        29.77R WCI  25          
SPRINGFIELD    CLOUDY    31  25  78 W10       29.78R WCI  22          
TAYLORVILLE    CLOUDY    30  24  79 W14       29.79R WCI  20          
$$


SKY/WX - Weather  TMP - Temperature  DP - Dew Point  RH - Relative Humidity
WIND - Wind Direction/Speed PRES - Barometric Pressure VSB - Visibility
WCI - Wind Chill Index E13G22 Wind - East Wind 13 mph/Gusts of 22 mph